K8JMX-13 Weather Reports


Display with metric or nautical units.
time (UTC)temp
F
wind
direction
speed
MPH
gust
MPH
rain 1hr
in
rain 24hr
in
rain mn
in
humidity
%
barometer
mb
20260508141546 55 215 2.0 2.0 0.00 0.00 0.00 53 1013.1
20260508141044 55 238 2.0 4.0 0.00 0.00 0.00 51 1013.0
20260508140541 55 213 2.0 2.0 0.00 0.00 0.00 53 1013.0
20260508140037 55 163 2.0 3.0 0.00 0.00 0.00 52 1013.0
20260508135533 55 288 2.0 7.0 0.00 0.00 0.00 52 1013.0
20260508135029 55 254 1.0 2.0 0.00 0.00 0.00 53 1013.0
20260508134526 55 211 1.0 2.0 0.00 0.00 0.00 52 1013.1
20260508134023 55 168 1.0 3.0 0.00 0.00 0.00 52 1012.9
20260508133520 55 242 2.0 6.0 0.00 0.00 0.00 51 1013.0
20260508133017 55 226 4.0 6.0 0.00 0.00 0.00 52 1012.9
20260508132515 55 211 3.0 4.0 0.00 0.00 0.00 51 1012.9
20260508132012 55 206 1.0 8.0 0.00 0.00 0.00 52 1012.9
20260508131507 55 203 4.0 7.0 0.00 0.00 0.00 52 1013.1
20260508131003 54 292 2.0 3.0 0.00 0.00 0.00 52 1013.0
20260508130501 54 208 3.0 4.0 0.00 0.00 0.00 52 1012.9
20260508125956 53 266 2.0 3.0 0.00 0.00 0.00 53 1012.8
20260508125453 53 224 1.0 3.0 0.00 0.00 0.00 55 1013.1
20260508124951 53 272 3.0 6.0 0.00 0.00 0.00 54 1013.0
20260508124448 53 234 1.0 2.0 0.00 0.00 0.00 54 1012.9
20260508123945 52 217 1.0 3.0 0.00 0.00 0.00 54 1012.6
20260508123444 52 198 1.0 3.0 0.00 0.00 0.00 55 1012.9
20260508122940 52 115 0.0 3.0 0.00 0.00 0.00 56 1012.8
20260508122437 51 150 1.0 3.0 0.00 0.00 0.00 57 1012.9
20260508121934 51 137 1.0 3.0 0.00 0.00 0.00 57 1012.9
20260508121432 51 173 1.0 2.0 0.00 0.00 0.00 58 1012.7
20260508120930 50 177 0.0 4.0 0.00 0.00 0.00 59 1013.0
20260508120427 50 198 2.0 4.0 0.00 0.00 0.00 58 1012.9
20260508115925 50 219 2.0 3.0 0.00 0.00 0.00 59 1013.0
20260508115423 50 178 2.0 3.0 0.00 0.00 0.00 59 1012.9
20260508114919 49 155 1.0 2.0 0.00 0.00 0.00 59 1012.9
20260508114416 49 129 0.0 3.0 0.00 0.00 0.00 60 1012.8
20260508113912 49 173 1.0 3.0 0.00 0.00 0.00 60 1012.8
20260508113410 49 191 2.0 4.0 0.00 0.00 0.00 61 1012.9
20260508112907 48 100 0.0 2.0 0.00 0.00 0.00 62 1012.9
20260508112404 48 170 2.0 2.0 0.00 0.00 0.00 63 1012.8
20260508111901 48 191 1.0 2.0 0.00 0.00 0.00 62 1012.4
20260508111358 47 105 0.0 1.0 0.00 0.00 0.00 63 1012.6
20260508110855 47 112 0.0 2.0 0.00 0.00 0.00 63 1012.6
20260508110353 47 195 2.0 2.0 0.00 0.00 0.00 63 1012.7
20260508105852 47 181 1.0 1.0 0.00 0.00 0.00 64 1012.6
20260508105349 47 107 0.0 1.0 0.00 0.00 0.00 63 1012.4
20260508104846 47 107 0.0 1.0 0.00 0.00 0.00 63 1012.3
20260508104343 47 136 1.0 1.0 0.00 0.00 0.00 63 1012.3
20260508103840 46 120 1.0 2.0 0.00 0.00 0.00 65 1012.2
20260508103337 46 103 0.0 1.0 0.00 0.00 0.00 64 1012.2
20260508102835 46 95 0.0 1.0 0.00 0.00 0.00 64 1012.2
20260508102333 46 106 0.0 2.0 0.00 0.00 0.00 63 1012.1
20260508101829 46 102 0.0 0.0 0.00 0.00 0.00 64 1012.0
20260508101327 46 112 0.0 0.0 0.00 0.00 0.00 63 1012.1
20260508100824 46 116 0.0 0.0 0.00 0.00 0.00 64 1012.0
20260508100323 46 96 0.0 0.0 0.00 0.00 0.00 64 1012.1
20260508095818 46 98 0.0 0.0 0.00 0.00 0.00 64 1011.9
20260508095316 46 139 0.0 0.0 0.00 0.00 0.00 64 1012.0
20260508094813 46 98 0.0 0.0 0.00 0.00 0.00 65 1012.0
20260508094310 46 105 0.0 0.0 0.00 0.00 0.00 64 1012.1
20260508093807 46 107 0.0 0.0 0.00 0.00 0.00 64 1012.0
20260508093304 46 99 0.0 0.0 0.00 0.00 0.00 64 1012.0
20260508092801 47 104 0.0 0.0 0.00 0.00 0.00 64 1012.3
20260508092259 47 103 0.0 0.0 0.00 0.00 0.00 64 1012.0
20260508091757 47 136 1.0 2.0 0.00 0.00 0.00 65 1012.1
20260508091253 47 100 0.0 0.0 0.00 0.00 0.00 64 1012.1
20260508090751 46 93 0.0 0.0 0.00 0.00 0.00 65 1012.2
20260508090249 46 95 0.0 0.0 0.00 0.00 0.00 65 1012.4
20260508085745 46 90 0.0 0.0 0.00 0.00 0.00 69 1012.0
20260508085242 46 94 0.0 0.0 0.00 0.00 0.00 68 1012.3
20260508084737 46 92 0.0 0.0 0.00 0.00 0.00 68 1012.0
20260508084236 46 91 0.0 0.0 0.00 0.00 0.00 69 1012.2
20260508083733 45 95 0.0 0.0 0.00 0.00 0.00 71 1012.2
20260508083230 44 78 0.0 0.0 0.00 0.00 0.00 75 1012.2
20260508082725 45 78 0.0 0.0 0.00 0.00 0.00 75 1012.2
20260508082223 45 80 0.0 0.0 0.00 0.00 0.00 75 1011.9
20260508081720 45 101 0.0 0.0 0.00 0.00 0.00 75 1012.0
20260508081216 46 85 0.0 0.0 0.00 0.00 0.00 74 1012.2
20260508080714 46 93 0.0 0.0 0.00 0.00 0.00 73 1012.1
20260508080212 46 95 0.0 0.0 0.00 0.00 0.00 74 1012.3
20260508075708 46 107 0.0 0.0 0.00 0.00 0.00 74 1012.1
20260508075205 46 100 0.0 0.0 0.00 0.00 0.00 74 1012.1
20260508074703 46 99 0.0 0.0 0.00 0.00 0.00 74 1012.2
20260508074200 47 88 0.0 0.0 0.00 0.00 0.00 73 1012.3
20260508073657 47 90 0.0 0.0 0.00 0.00 0.00 73 1012.7
20260508073155 47 95 0.0 0.0 0.00 0.00 0.00 72 1012.2
20260508072650 48 91 0.0 0.0 0.00 0.00 0.00 72 1012.3
20260508072148 48 97 0.0 0.0 0.00 0.00 0.00 71 1012.4
20260508071645 48 83 0.0 0.0 0.00 0.00 0.00 68 1012.6
20260508071143 48 83 0.0 0.0 0.00 0.00 0.00 68 1012.7
20260508070640 49 100 0.0 0.0 0.00 0.00 0.00 68 1012.9
20260508070139 49 88 0.0 0.0 0.00 0.00 0.00 67 1012.8
20260508065635 49 89 0.0 0.0 0.00 0.00 0.00 66 1012.8
20260508065133 49 81 0.0 0.0 0.00 0.00 0.00 64 1012.7
20260508064631 50 81 0.0 0.0 0.00 0.00 0.00 63 1012.8
20260508064129 50 81 0.0 0.0 0.00 0.00 0.00 62 1013.1
20260508063626 50 85 0.0 0.0 0.00 0.00 0.00 62 1012.9
20260508063124 50 47 0.0 1.0 0.00 0.00 0.00 62 1013.0
20260508062621 50 68 0.0 0.0 0.00 0.00 0.00 62 1013.2
20260508062118 51 53 1.0 1.0 0.00 0.00 0.00 60 1013.2
20260508061615 51 52 0.0 0.0 0.00 0.00 0.00 60 1013.1
20260508061112 51 60 0.0 1.0 0.00 0.00 0.00 60 1013.1
20260508060609 51 12 2.0 3.0 0.00 0.00 0.00 57 1013.2
20260508060107 51 354 1.0 2.0 0.00 0.00 0.00 54 1013.1
20260508055602 51 1 0.0 1.0 0.00 0.00 0.00 55 1012.9
20260508055059 51 85 0.0 0.0 0.00 0.00 0.00 57 1012.9
20260508054555 51 105 0.0 0.0 0.00 0.00 0.00 56 1012.7
20260508054053 51 96 0.0 0.0 0.00 0.00 0.00 56 1012.6
20260508053549 51 97 0.0 0.0 0.00 0.00 0.00 56 1012.7
20260508053048 51 100 0.0 1.0 0.00 0.00 0.00 57 1012.7
20260508052545 51 85 0.0 0.0 0.00 0.00 0.00 57 1012.3
20260508052041 51 101 0.0 1.0 0.00 0.00 0.00 56 1012.6
20260508051538 50 117 0.0 0.0 0.00 0.00 0.00 57 1012.8
20260508051033 50 104 0.0 0.0 0.00 0.00 0.00 59 1012.8
20260508050529 50 110 0.0 0.0 0.00 0.00 0.00 59 1012.6
20260508050027 49 109 0.0 0.0 0.00 0.00 0.00 59 1012.7
20260508045523 49 99 0.0 0.0 0.00 0.00 0.00 62 1012.8
20260508045021 49 90 0.0 0.0 0.00 0.00 0.00 62 1012.8
20260508044518 50 90 0.0 0.0 0.00 0.00 0.00 62 1012.9
20260508044014 50 92 0.0 0.0 0.00 0.00 0.00 60 1012.9
20260508043510 49 95 0.0 1.0 0.00 0.00 0.00 61 1012.9
20260508043007 49 74 0.0 0.0 0.00 0.00 0.00 63 1012.8
20260508042504 49 84 0.0 0.0 0.00 0.00 0.00 62 1013.0
20260508042001 49 91 0.0 0.0 0.00 0.00 0.00 62 1012.9
20260508041458 49 93 0.0 0.0 0.00 0.00 0.00 63 1013.0
20260508040955 48 88 0.0 0.0 0.00 0.00 0.00 63 1012.8
20260508040452 48 80 0.0 0.0 0.00 0.00 0.00 65 1012.8
20260508035949 48 79 0.0 0.0 0.00 0.00 0.00 64 1012.8
20260508035446 48 79 0.0 0.0 0.00 0.00 0.00 61 1012.9
20260508034943 49 79 0.0 0.0 0.00 0.00 0.00 65 1012.9
20260508034441 49 84 0.0 0.0 0.00 0.00 0.00 64 1012.8
20260508033937 49 98 0.0 0.0 0.00 0.00 0.00 60 1012.7
20260508033435 50 79 0.0 0.0 0.00 0.00 0.00 60 1012.7
20260508032932 50 78 0.0 0.0 0.00 0.00 0.00 59 1012.6
20260508032430 50 77 0.0 0.0 0.00 0.00 0.00 59 1012.8
20260508031926 49 85 0.0 0.0 0.00 0.00 0.00 58 1013.0
20260508031424 48 79 0.0 0.0 0.00 0.00 0.00 61 1012.8
20260508030919 48 78 0.0 0.0 0.00 0.00 0.00 63 1012.7
20260508030416 48 82 0.0 0.0 0.00 0.00 0.00 63 1012.8
20260508025913 48 94 0.0 0.0 0.00 0.00 0.00 61 1012.8
20260508025410 48 89 0.0 0.0 0.00 0.00 0.00 64 1012.8
20260508024907 48 90 0.0 0.0 0.00 0.00 0.00 62 1012.9
20260508024404 48 84 0.0 0.0 0.00 0.00 0.00 62 1012.8
20260508023900 48 84 0.0 0.0 0.00 0.00 0.00 61 1012.7
20260508023357 48 88 0.0 0.0 0.00 0.00 0.00 61 1013.0
20260508022854 48 85 0.0 0.0 0.00 0.00 0.00 62 1012.8
20260508022349 48 91 0.0 0.0 0.00 0.00 0.00 62 1012.7
20260508021847 48 90 0.0 0.0 0.00 0.00 0.00 60 1012.7
20260508021343 49 85 0.0 0.0 0.00 0.00 0.00 61 1012.8
20260508020839 49 81 0.0 0.0 0.00 0.00 0.00 61 1012.7
20260508020337 49 82 0.0 0.0 0.00 0.00 0.00 60 1013.0
20260508015834 49 83 0.0 0.0 0.00 0.00 0.00 59 1012.8
20260508015332 50 87 0.0 0.0 0.00 0.00 0.00 57 1012.8
20260508014828 50 88 0.0 0.0 0.00 0.00 0.00 56 1012.7
20260508014326 50 87 0.0 0.0 0.00 0.00 0.00 55 1012.7
20260508013826 50 87 0.0 0.0 0.00 0.00 0.00 54 1012.9
20260508013323 51 87 0.0 0.0 0.00 0.00 0.00 53 1012.9
20260508012820 51 88 0.0 0.0 0.00 0.00 0.00 54 1012.8
20260508012317 51 88 0.0 0.0 0.00 0.00 0.00 52 1012.6
20260508011815 51 86 0.0 0.0 0.00 0.00 0.00 51 1012.4
20260508011312 52 86 0.0 0.0 0.00 0.00 0.00 50 1012.7
20260508010809 52 86 0.0 0.0 0.00 0.00 0.00 50 1012.4
20260508010307 52 89 0.0 0.0 0.00 0.00 0.00 50 1012.3
20260508005804 52 90 0.0 0.0 0.00 0.00 0.00 50 1012.6
20260508005300 52 93 0.0 0.0 0.00 0.00 0.00 51 1012.2
20260508004756 53 93 0.0 0.0 0.00 0.00 0.00 49 1012.4
20260508004253 54 81 0.0 0.0 0.00 0.00 0.00 47 1012.2
20260508003749 55 316 1.0 1.0 0.00 0.00 0.00 45 1012.3
20260508003247 55 88 0.0 1.0 0.00 0.00 0.00 44 1012.2
20260508002743 55 47 0.0 1.0 0.00 0.00 0.00 43 1012.2
20260508002241 56 53 0.0 1.0 0.00 0.00 0.00 42 1012.2
20260508001736 56 28 1.0 1.0 0.00 0.00 0.00 42 1012.2
20260508001231 57 65 0.0 0.0 0.00 0.00 0.00 40 1012.1
20260508000728 58 49 0.0 0.0 0.00 0.00 0.00 39 1012.0
20260508000227 58 53 0.0 2.0 0.00 0.00 0.00 40 1012.0
20260507235722 58 29 1.0 1.0 0.00 0.00 0.00 38 1011.8
20260507235219 58 237 1.0 2.0 0.00 0.00 0.00 39 1012.1
20260507234716 58 348 0.0 2.0 0.00 0.00 0.00 39 1012.0
20260507234213 59 300 2.0 3.0 0.00 0.00 0.00 38 1011.9
20260507233709 59 70 1.0 3.0 0.00 0.00 0.00 38 1011.9
20260507233208 59 331 2.0 2.0 0.00 0.00 0.00 38 1012.0
20260507232704 59 350 2.0 3.0 0.00 0.00 0.00 37 1011.9
20260507232201 59 246 2.0 3.0 0.00 0.00 0.00 37 1012.1
20260507231658 59 71 0.0 6.0 0.00 0.00 0.00 38 1012.0
20260507231155 60 23 3.0 4.0 0.00 0.00 0.00 37 1011.8
20260507230651 60 216 3.0 4.0 0.00 0.00 0.00 36 1011.8
20260507230149 60 352 2.0 3.0 0.00 0.00 0.00 36 1012.0
20260507225648 59 353 2.0 3.0 0.00 0.00 0.00 37 1012.1
20260507225145 57 277 3.0 4.0 0.00 0.00 0.00 40 1012.0
20260507224641 58 22 1.0 4.0 0.00 0.00 0.00 40 1012.3
20260507224138 58 50 1.0 6.0 0.00 0.00 0.00 39 1012.1
20260507223634 59 37 3.0 6.0 0.00 0.00 0.00 37 1012.1
20260507223131 61 2 3.0 4.0 0.00 0.00 0.00 36 1012.1
20260507222628 58 311 2.0 4.0 0.00 0.00 0.00 38 1012.1
20260507222124 59 67 1.0 3.0 0.00 0.00 0.00 38 1012.2
20260507221620 59 357 1.0 2.0 0.00 0.00 0.00 39 1012.3
20260507221117 59 325 3.0 7.0 0.00 0.00 0.00 37 1012.3
20260507220614 61 320 1.0 9.0 0.00 0.00 0.00 35 1012.3
20260507220112 60 31 3.0 4.0 0.00 0.00 0.00 36 1012.2
20260507215608 60 14 4.0 7.0 0.00 0.00 0.00 36 1012.1
20260507215106 59 325 1.0 6.0 0.00 0.00 0.00 37 1012.0
20260507214603 60 348 2.0 7.0 0.00 0.00 0.00 36 1011.8
20260507214059 61 108 3.0 6.0 0.00 0.00 0.00 34 1012.1
20260507213555 60 338 2.0 8.0 0.00 0.00 0.00 36 1012.0
20260507213052 62 307 5.0 8.0 0.00 0.00 0.00 34 1012.0
20260507212548 59 59 2.0 4.0 0.00 0.00 0.00 37 1011.8
20260507212045 63 87 4.0 6.0 0.00 0.00 0.00 34 1011.8
20260507211542 60 4 2.0 4.0 0.00 0.00 0.00 37 1011.7
20260507211038 62 36 4.0 8.0 0.00 0.00 0.00 37 1011.7
20260507210535 60 34 1.0 4.0 0.00 0.00 0.00 35 1011.8
20260507210032 60 343 4.0 7.0 0.00 0.00 0.00 36 1012.0
20260507205529 60 296 2.0 8.0 0.00 0.00 0.00 37 1012.0
20260507205025 60 265 2.0 9.0 0.00 0.00 0.00 37 1011.8
20260507204521 58 56 2.0 6.0 0.00 0.00 0.00 38 1011.9
20260507204019 58 18 6.0 9.0 0.00 0.00 0.00 38 1011.8
20260507203517 60 53 3.0 10.0 0.00 0.00 0.00 38 1011.9
20260507203014 59 283 3.0 6.0 0.00 0.00 0.00 39 1011.8
20260507202509 59 354 3.0 4.0 0.00 0.00 0.00 39 1011.6
20260507202006 60 92 1.0 8.0 0.00 0.00 0.00 39 1011.7
20260507201502 59 52 7.0 10.0 0.00 0.00 0.00 40 1011.8
20260507200958 59 300 2.0 7.0 0.00 0.00 0.00 38 1012.0
20260507200454 60 129 4.0 7.0 0.00 0.00 0.00 36 1011.9
20260507195949 59 100 1.0 6.0 0.00 0.00 0.00 39 1012.0
20260507195447 59 85 4.0 9.0 0.00 0.00 0.00 39 1011.8
20260507194945 59 280 2.0 4.0 0.00 0.00 0.00 40 1011.8
20260507194441 60 274 3.0 8.0 0.00 0.00 0.00 39 1012.0
20260507193937 58 269 3.0 7.0 0.00 0.00 0.00 40 1011.9
20260507193434 59 3 6.0 9.0 0.00 0.00 0.00 40 1012.0
20260507192931 60 283 4.0 8.0 0.00 0.00 0.00 39 1012.1
20260507192427 59 239 4.0 9.0 0.00 0.00 0.00 41 1012.0
20260507191924 59 249 6.0 13.0 0.00 0.00 0.00 41 1012.1
20260507191420 59 272 4.0 8.0 0.00 0.00 0.00 41 1011.8
20260507190916 60 343 2.0 6.0 0.00 0.00 0.00 40 1012.0
20260507190414 59 276 5.0 8.0 0.00 0.00 0.00 41 1011.9
20260507185913 58 34 3.0 7.0 0.00 0.00 0.00 42 1012.1
20260507185410 58 337 7.0 9.0 0.00 0.00 0.00 41 1012.2
20260507184907 58 223 8.0 11.0 0.00 0.00 0.00 41 1012.0
20260507184405 59 254 4.0 8.0 0.00 0.00 0.00 41 1012.2
20260507183902 59 250 6.0 9.0 0.00 0.00 0.00 40 1012.1
20260507183359 58 325 6.0 13.0 0.00 0.00 0.00 41 1012.2
20260507182856 58 284 7.0 11.0 0.00 0.00 0.00 42 1012.1
20260507182351 57 250 8.0 13.0 0.00 0.00 0.00 42 1012.2
20260507181848 57 262 6.0 14.0 0.00 0.00 0.00 41 1012.2
20260507181344 59 232 5.0 9.0 0.00 0.00 0.00 41 1012.3
20260507180841 58 267 4.0 10.0 0.00 0.00 0.00 42 1012.1
20260507180338 59 223 3.0 8.0 0.00 0.00 0.00 42 1012.2
20260507175833 58 2 4.0 8.0 0.00 0.00 0.00 42 1012.1
20260507175331 59 290 6.0 8.0 0.00 0.00 0.00 42 1012.1
20260507174828 57 313 5.0 9.0 0.00 0.00 0.00 43 1012.2
20260507174326 58 52 5.0 7.0 0.00 0.00 0.00 43 1012.4
20260507173823 57 174 3.0 9.0 0.00 0.00 0.00 44 1012.4
20260507173320 57 281 2.0 4.0 0.00 0.00 0.00 42 1012.6
20260507172816 57 248 7.0 9.0 0.00 0.00 0.00 41 1012.6
20260507172313 57 322 6.0 8.0 0.00 0.00 0.00 43 1012.7
20260507171809 56 333 5.0 8.0 0.00 0.00 0.00 44 1012.8
20260507171306 57 313 5.0 10.0 0.00 0.00 0.00 43 1012.9
20260507170803 56 68 1.0 6.0 0.00 0.00 0.00 45 1013.0
20260507170259 55 282 9.0 13.0 0.00 0.00 0.00 44 1013.0
20260507165755 56 333 3.0 7.0 0.00 0.00 0.00 43 1013.0
20260507165251 57 266 7.0 11.0 0.00 0.00 0.00 43 1013.0
20260507164747 56 287 5.0 8.0 0.00 0.00 0.00 42 1013.2
20260507164245 55 287 2.0 6.0 0.00 0.00 0.00 43 1013.2
20260507163742 55 256 6.0 13.0 0.00 0.00 0.00 45 1013.2
20260507163240 55 266 6.0 9.0 0.00 0.00 0.00 44 1013.1
20260507162735 55 312 4.0 6.0 0.00 0.00 0.00 43 1013.1
20260507162232 55 22 5.0 10.0 0.00 0.00 0.00 43 1013.1
20260507161729 55 11 2.0 7.0 0.00 0.00 0.00 43 1013.2
20260507161225 55 288 4.0 7.0 0.00 0.00 0.00 43 1012.9
20260507160721 54 275 8.0 9.0 0.00 0.00 0.00 45 1012.9
20260507160218 54 248 6.0 10.0 0.00 0.00 0.00 45 1013.0
20260507155713 54 294 6.0 9.0 0.00 0.00 0.00 44 1013.0
20260507155210 55 304 3.0 4.0 0.00 0.00 0.00 45 1013.0
20260507154706 54 310 2.0 3.0 0.00 0.00 0.00 46 1012.9
20260507154204 53 10 5.0 9.0 0.00 0.00 0.00 42 1013.0
20260507153700 54 260 6.0 7.0 0.00 0.00 0.00 43 1012.9
20260507153157 53 270 6.0 7.0 0.00 0.00 0.00 44 1013.0
20260507152653 53 239 4.0 8.0 0.00 0.00 0.00 44 1012.9
20260507152149 52 260 6.0 11.0 0.00 0.00 0.00 44 1012.8
20260507151646 53 225 4.0 4.0 0.00 0.00 0.00 45 1013.0
20260507151142 53 283 3.0 6.0 0.00 0.00 0.00 45 1012.6
20260507150640 52 11 3.0 7.0 0.00 0.00 0.00 45 1012.6
20260507150136 53 232 3.0 6.0 0.00 0.00 0.00 44 1012.6
20260507145631 52 249 4.0 7.0 0.00 0.00 0.00 45 1012.9
20260507145130 52 278 1.0 4.0 0.00 0.00 0.00 44 1012.9
20260507144625 52 311 3.0 8.0 0.00 0.00 0.00 46 1012.9
20260507144124 53 30 2.0 7.0 0.00 0.00 0.00 45 1012.9
20260507143620 52 321 1.0 4.0 0.00 0.00 0.00 46 1012.9
20260507143118 52 306 5.0 7.0 0.00 0.00 0.00 45 1013.0
20260507142613 52 268 5.0 9.0 0.00 0.00 0.00 45 1012.8
20260507142110 52 310 3.0 4.0 0.00 0.00 0.00 47 1012.9